DW5091 Weather Reports


time (UTC)temp
C
wind
direction
speed
KPH
gust
KPH
rain 1hr
cm
rain 24hr
cm
rain mn
cm
humidity
%
barometer
mb
20260507135604 14 126 3.2 9.7 0.00 0.00 0.00 62 1016.1
20260507134104 14 123 4.8 8.0 0.00 0.00 0.00 63 1016.1
20260507131603 14 127 4.8 14.5 0.00 0.00 0.00 63 1016.2
20260507131103 14 133 3.2 9.7 0.00 0.00 0.00 65 1016.2
20260507123603 13 130 9.7 14.5 0.00 0.00 0.00 62 1016.4
20260507122603 14 136 6.4 12.9 0.00 0.00 0.00 62 1016.4
20260507122103 14 149 4.8 16.1 0.00 0.00 0.00 61 1016.4
20260507121103 14 135 4.8 19.3 0.00 0.00 0.00 63 1016.4
20260507120603 14 133 6.4 12.9 0.00 0.00 0.00 62 1016.3
20260507114603 14 133 3.2 9.7 0.00 0.00 0.00 60 1016.4
20260507113103 15 141 3.2 9.7 0.00 0.00 0.00 58 1016.4
20260507112603 15 118 3.2 11.3 0.00 0.00 0.00 57 1016.3
20260507112103 15 124 3.2 9.7 0.00 0.00 0.00 56 1016.3
20260507110603 15 141 8.0 19.3 0.00 0.00 0.00 54 1016.4
20260507103104 15 117 4.8 9.7 0.00 0.00 0.00 63 1016.5
20260507102604 15 133 3.2 9.7 0.00 0.00 0.00 63 1016.5
20260507101604 13 119 4.8 11.3 0.00 0.00 0.00 68 1016.6
20260507100603 13 125 1.6 8.0 0.00 0.00 0.00 72 1016.7
20260507100103 13 126 3.2 4.8 0.00 0.00 0.00 73 1016.7
20260507095603 13 118 3.2 8.0 0.00 0.00 0.00 75 1016.7
20260507095105 13 143 3.2 8.0 0.00 0.00 0.00 74 1016.6
20260507093104 13 109 4.8 9.7 0.00 0.00 0.00 73 1016.8
20260507092603 13 128 1.6 9.7 0.00 0.00 0.00 73 1016.7
20260507092103 12 149 4.8 8.0 0.00 0.00 0.00 74 1016.7
20260507091605 13 144 3.2 11.3 0.00 0.00 0.00 72 1016.8
20260507084103 12 134 1.6 4.8 0.00 0.00 0.00 79 1016.8
20260507083603 12 133 3.2 8.0 0.00 0.00 0.00 78 1016.8
20260507082103 11 135 1.6 3.2 0.00 0.00 0.00 81 1016.8
20260507081103 10 128 1.6 4.8 0.00 0.00 0.00 83 1016.8
20260507073103 8 121 1.6 4.8 0.00 0.00 0.00 87 1016.7
20260507072603 8 135 1.6 3.2 0.00 0.00 0.00 87 1016.7
20260507072103 8 127 1.6 3.2 0.00 0.00 0.00 88 1016.7
20260507071604 8 139 1.6 3.2 0.00 0.00 0.00 88 1016.7
20260507070603 7 118 1.6 3.2 0.00 0.00 0.00 88 1016.7
20260507065103 7 111 0.0 1.6 0.00 0.00 0.00 90 1016.6
20260507064603 7 77 0.0 1.6 0.00 0.00 0.00 90 1016.6
20260507064103 7 76 0.0 1.6 0.00 0.00 0.00 91 1016.6
20260507063603 7 75 0.0 0.0 0.00 0.00 0.00 91 1016.7
20260507063103 6 75 0.0 1.6 0.00 0.00 0.00 91 1016.6
20260507061103 6 142 1.6 4.8 0.00 0.00 0.00 91 1016.5
20260507053104 6 129 0.0 1.6 0.00 0.00 0.00 90 1016.1
20260507051603 6 112 0.0 1.6 0.00 0.00 0.00 90 1016.1
20260507050103 6 110 0.0 1.6 0.00 0.00 0.00 90 1016.1
20260507045603 6 110 0.0 1.6 0.00 0.00 0.00 90 1016.2
20260507044604 6 110 0.0 1.6 0.00 0.00 0.00 89 1016.0
20260507043604 6 131 0.0 1.6 0.00 0.00 0.00 89 1016.0
20260507042102 6 107 0.0 3.2 0.00 0.00 0.00 89 1016.0
20260507041103 6 117 0.0 1.6 0.00 0.00 0.00 89 1015.9
20260507040103 6 126 0.0 1.6 0.00 0.00 0.00 89 1016.0
20260507035603 6 105 0.0 1.6 0.00 0.00 0.00 89 1016.0
20260507035103 6 106 0.0 1.6 0.00 0.00 0.00 89 1015.9
20260507034602 6 105 0.0 0.0 0.00 0.00 0.00 89 1016.0
20260507033103 6 105 0.0 0.0 0.00 0.00 0.00 89 1016.0
20260507032604 6 105 0.0 0.0 0.00 0.00 0.00 89 1016.0
20260507032103 6 105 0.0 1.6 0.00 0.00 0.00 89 1016.0
20260507031103 6 105 0.0 1.6 0.00 0.00 0.00 89 1016.0
20260507030603 6 105 0.0 1.6 0.00 0.00 0.00 89 1015.9
20260507025603 6 105 0.0 1.6 0.00 0.00 0.00 88 1016.0
20260507023103 6 129 0.0 1.6 0.00 0.00 0.00 88 1015.8
20260507022603 6 120 0.0 3.2 0.00 0.00 0.00 87 1015.8
20260507022103 6 129 0.0 1.6 0.00 0.00 0.00 87 1015.9
20260507021605 6 127 0.0 1.6 0.00 0.00 0.00 87 1015.9
20260507020103 6 117 0.0 1.6 0.00 0.00 0.00 88 1015.9
20260507015603 6 117 0.0 1.6 0.00 0.00 0.00 88 1015.9
20260507015104 6 113 0.0 1.6 0.00 0.00 0.00 88 1015.9
20260507013103 6 130 0.0 3.2 0.00 0.00 0.00 87 1016.0
20260507012603 6 127 0.0 1.6 0.00 0.00 0.00 87 1015.9
20260507011103 6 125 0.0 1.6 0.00 0.00 0.00 86 1015.9
20260507010105 6 115 0.0 1.6 0.00 0.00 0.00 86 1015.9
20260507005103 6 127 0.0 1.6 0.00 0.00 0.00 86 1016.0
20260507003605 6 129 0.0 3.2 0.00 0.00 0.00 85 1016.0
20260507003103 6 128 0.0 1.6 0.00 0.00 0.00 85 1016.0
20260507002604 6 139 0.0 1.6 0.00 0.00 0.00 85 1016.1
20260507002103 6 127 1.6 3.2 0.00 0.00 0.00 84 1016.0
20260507001603 6 130 0.0 1.6 0.00 0.00 0.00 84 1016.1
20260507000104 6 131 0.0 1.6 0.00 0.00 0.00 83 1016.1
20260506235603 6 94 1.6 3.2 0.00 0.00 0.00 83 1016.1
20260506234603 6 120 0.0 1.6 0.00 0.00 0.00 83 1016.1
20260506234103 6 110 0.0 1.6 0.00 0.00 0.00 84 1016.2
20260506233603 6 128 0.0 0.0 0.00 0.00 0.00 83 1016.1
20260506232103 6 128 0.0 0.0 0.00 0.00 0.00 82 1016.0
20260506231104 6 128 0.0 0.0 0.00 0.00 0.00 82 1016.0
20260506230103 6 128 0.0 0.0 0.00 0.00 0.00 81 1016.0
20260506225103 6 128 0.0 1.6 0.00 0.00 0.00 81 1016.0
20260506224103 6 130 0.0 0.0 0.00 0.00 0.00 81 1016.0
20260506223603 6 130 0.0 0.0 0.00 0.00 0.00 80 1016.0
20260506223103 7 130 0.0 0.0 0.00 0.00 0.00 80 1015.9
20260506221605 7 130 0.0 0.0 0.00 0.00 0.00 79 1015.7
20260506221103 7 130 0.0 0.0 0.00 0.00 0.00 78 1015.7
20260506215603 7 130 0.0 0.0 0.00 0.00 0.00 77 1015.6
20260506213603 8 130 0.0 1.6 0.00 0.00 0.00 76 1015.7
20260506213104 8 130 0.0 0.0 0.00 0.00 0.00 76 1015.6
20260506212603 8 130 0.0 0.0 0.00 0.00 0.00 75 1015.6
20260506211604 8 130 0.0 0.0 0.00 0.00 0.00 74 1015.5
20260506211103 8 130 0.0 0.0 0.00 0.00 0.00 74 1015.5
20260506205603 8 130 0.0 1.6 0.00 0.00 0.00 72 1015.5
20260506204605 9 127 0.0 1.6 0.00 0.00 0.00 71 1015.4
20260506204104 9 129 0.0 1.6 0.00 0.00 0.00 70 1015.4
20260506203104 10 326 0.0 3.2 0.00 0.00 0.00 69 1015.3
20260506202104 10 328 0.0 1.6 0.00 0.00 0.00 67 1015.1
20260506201604 10 327 0.0 1.6 0.00 0.00 0.00 67 1015.1
20260506201103 10 318 0.0 3.2 0.00 0.00 0.00 66 1015.1
20260506200603 10 313 0.0 1.6 0.00 0.00 0.00 65 1015.1
20260506200104 11 328 0.0 1.6 0.00 0.00 0.00 65 1015.1
20260506195104 11 340 1.6 3.2 0.00 0.00 0.00 64 1015.0
20260506194603 11 319 0.0 3.2 0.00 0.00 0.00 63 1014.9
20260506194103 11 333 0.0 3.2 0.00 0.00 0.00 62 1014.9
20260506193104 11 341 0.0 1.6 0.00 0.00 0.00 61 1014.9
20260506192604 12 325 1.6 8.0 0.00 0.00 0.00 60 1014.9
20260506192103 12 358 1.6 8.0 0.00 0.00 0.00 58 1014.8
20260506191103 12 350 1.6 8.0 0.00 0.00 0.00 57 1014.6
20260506190603 12 0 3.2 8.0 0.00 0.00 0.00 57 1014.7
20260506182602 12 353 3.2 9.7 0.00 0.00 0.00 54 1014.6
20260506181603 12 7 4.8 14.5 0.00 0.00 0.00 53 1014.5
20260506175103 13 357 3.2 9.7 0.00 0.00 0.00 54 1014.3
20260506174103 13 357 6.4 16.1 0.00 0.00 0.00 53 1014.2
20260506173603 13 336 4.8 11.3 0.00 0.00 0.00 53 1014.2
20260506170103 13 340 4.8 9.7 0.00 0.00 0.00 52 1014.2
20260506165603 13 357 4.8 14.5 0.00 0.00 0.00 52 1014.1
20260506164103 13 0 6.4 11.3 0.00 0.00 0.00 51 1014.1
20260506162603 13 334 3.2 4.8 0.00 0.00 0.00 53 1014.0
20260506161603 13 348 6.4 14.5 0.00 0.00 0.00 53 1014.0
20260506161103 13 350 8.0 14.5 0.00 0.00 0.00 52 1014.1
20260506160603 13 344 4.8 19.3 0.00 0.00 0.00 52 1014.1
20260506160104 14 344 6.4 14.5 0.00 0.00 0.00 51 1014.1
20260506155603 14 4 3.2 8.0 0.00 0.00 0.00 52 1014.1
20260506153603 14 348 9.7 14.5 0.00 0.00 0.00 53 1014.2
20260506150604 13 352 4.8 14.5 0.00 0.00 0.00 53 1014.2
20260506145603 13 342 3.2 4.8 0.00 0.00 0.00 54 1014.3
20260506144604 13 357 9.7 20.9 0.00 0.00 0.00 53 1014.4
20260506144105 13 355 9.7 19.3 0.00 0.00 0.00 53 1014.4
20260506142605 13 359 11.3 20.9 0.00 0.00 0.00 54 1014.5
20260506142104 14 357 14.5 22.5 0.00 0.00 0.00 53 1014.5
20260506141603 14 156 0.0 4.8 0.00 0.00 0.00 54 1014.5